Simultaneous Nadir Overpasses (SNOs) Predictions

Prediction of SNOs between GOES-14 and NOAA-20 Satellite Orbit:

Table of predicted SNOs for the next 14.0 days since TLE Epoch: 3/21/2025
Index Date Time (GOES-14) GOES-14 Lat,Lon NOAA-20 Lat,Lon Distance(km) Time Diff (sec)
1 03/22/2025 08:47:08 0.47,-108.16 1.11,-111.07 331.81 80
2 03/23/2025 08:31:01 0.48,-108.16 0.11,-106.53 186.37 80
3 03/24/2025 20:50:15 -0.47,-108.17 -1.29,-111.82 416.91 80
4 03/25/2025 20:34:09 -0.48,-108.17 -0.28,-107.28 101.30 80
5 03/27/2025 08:53:14 0.46,-108.19 1.43,-112.55 496.54 80
6 03/28/2025 08:37:08 0.47,-108.20 0.41,-108.01 21.83 80
7 03/30/2025 20:37:35 -0.46,-108.21 -0.61,-108.75 63.28 80
8 03/31/2025 20:21:28 -0.47,-108.21 0.41,-104.22 454.95 80
9 04/02/2025 08:40:33 0.45,-108.22 0.70,-109.48 143.48 80
10 04/03/2025 08:24:26 0.46,-108.22 -0.27,-104.93 374.63 80
